Showing default

NATO 2A, 4353

Orbit data source: Space-Track

NATO 2A, 4353 is a payload satellite owned by NATO (NATO) in GEO that was launched on Fri, 20 Mar 1970 UTC via a THOR DELTA M launch vehicle from the Air Force Eastern Test Range (AFETR). Payload-class satellites include a variety of spacecraft equipped with specific instruments for various scientific and technological missions. These include communications satellites like Starlink; space stations such as the ISS; scientific satellites like the Hubble; Earth observation satellites from companies like Planet Labs, Umbra, and HawkEye 360; GPS; miniature CubeSats for education and research; and military/defense satellites.

Loading next visibility...
Identifier
4353, 1970-021A
Orbit
GEO
Last TLE update
15 hours ago
Origin
Manufacturer
Philco-Ford
Mission
Non-operational Defense Communications
Bus & Motor
SKYNET, STAR 17A
Mass
243 kg wet, ~107 kg dry
Launch date (UTC)
1970-03-20 (55 years ago)
Launch vehicle
THOR DELTA M
Launch site
Air Force Eastern Test Range (AFETR)
Object type
Payload
Rocket body
Debris
Shape & HBR
Cyl, 1.4 m
Radar Cross Section
1.131 m², Large (>1 m²)

Expand to show TLE details & history

TLE from 15 hours ago
0 NATO 2A
1 04353U 70021A   25128.64668469 -.00000070  00000-0  00000-0 0  9990
2 04353   1.3904 285.0762 0001369 280.7491 146.2580  1.00263147121716
Epoch: 2025-05-08T15:31Z
Definitive object data (Epoch: 2025-05-08T15:31:13.557Z)
Latitude
1.30325°
Longitude
-107.43867°
Altitude
35,793.161 km
Speed
3.074 km/s
True Right ascension
23h 28m 19s
True Declination
1° 18' 07"
Sunlit
Object was in daylight at TLE epoch
Visualization TLE readout
Latitude
-1.29107°
Longitude
118.93748°
Altitude
35,783.02 km
Speed
3.075 km/s
Apparent Right ascension
14h 32m 36s
Apparent Declination
-7° 40' 25"
Sunlit
Object is in daylight
Visualization observer readout
Local Sidereal Time
14:43:10
Azimuth
183.544° SSW
Elevation
42.348°
Doppler factor
1
Orbital elements
Apogee altitude
35,795.859 km
Perigee altitude
35,784.313 km
Semi-major axis
42,168.223 km
Eccentricity
0.0001369
Inclination
1.3904°
RAAN
285.0762°
Arg. of periapsis
280.7491°
True anomaly
146.26671°
Mean anomaly
146.258°
Eccentric anomaly
146.26236°
Mean motion
0.25065 °/min
BSTAR
Unknown
Orbital period
1436.27 mins
Loading historical data...
4353 neighbors
Loading maneuver chart data...
Loading SW <> Apogee altitude chart data...
Loading historical data...
Loading historical data...
Loading historical data...
Loading historical data...
Loading historical data...
Loading historical data...
Loading historical data...
Other satellites on launch #21 in the year 1970 (1970-03-20 UTC)

NATO 2A Visibility forecast

Observer location: undefined°, undefined°

Span
Click to sort rows by Start time (UTC) header in descending order
Start Az.
Max El. time (UTC)
Max El. Az.
Max El.
End time (UTC)
End Az.
1440 mins2025-05-09 06:34:18.939Z183.542° SSW2025-05-09 17:03:18.939Z183.782° SSW35.427°2025-05-10 06:34:18.939Z183.594° SSW
|